📊 Raw Sensor Data

Showing records 35901 to 35925 of 84,886 total

ID Distance (ft) Battery V Battery A Int Temp (°F) Int Humid (%) Ext Temp (°F) Solar V RSSI SNR Time Stamp
48998 15.3 3.91 0 103 42 94 5.10 -71 7 08/12/2025 03:15 PM
48997 15.2 3.91 0 102 42 93 5.10 -71 8 08/12/2025 03:00 PM
48996 15.2 4.02 0 101 42 92 5.10 -70 8 08/12/2025 02:45 PM
48995 15.2 3.96 0 99 42 90 5.10 -71 8 08/12/2025 02:30 PM
48994 15.2 3.90 0 98 42 89 5.10 -70 7 08/12/2025 02:15 PM
48993 15.2 3.90 0 97 41 88 5.10 -71 8 08/12/2025 02:00 PM
48992 15.2 3.90 0 96 41 88 5.10 -71 7 08/12/2025 01:45 PM
48991 15.2 3.90 0 95 41 88 5.10 -71 7 08/12/2025 01:30 PM
48990 15.2 3.90 0 92 42 87 5.10 -72 7 08/12/2025 01:15 PM
48989 15.2 3.90 0 91 42 83 5.10 -71 7 08/12/2025 01:00 PM
48988 15.3 3.94 0 90 41 85 5.10 -70 8 08/12/2025 12:45 PM
48987 15.2 3.91 0 89 41 84 5.10 -71 8 08/12/2025 12:30 PM
48986 15.3 3.90 0 86 42 85 5.10 -70 8 08/12/2025 12:15 PM
48985 15.2 3.90 0 84 42 78 5.10 -69 8 08/12/2025 12:00 PM
48984 15.3 4.00 0 84 42 80 5.10 -69 8 08/12/2025 11:45 AM
48983 15.3 3.96 0 83 42 82 5.10 -70 8 08/12/2025 11:30 AM
48982 15.3 3.90 0 81 42 80 5.10 -70 7 08/12/2025 11:15 AM
48981 15.3 3.90 0 80 42 81 5.10 -71 7 08/12/2025 11:00 AM
48980 15.3 3.93 0 78 42 79 5.10 -70 7 08/12/2025 10:45 AM
48979 15.3 3.90 0 76 42 75 5.10 -72 7 08/12/2025 10:30 AM
48978 15.3 3.90 0 75 42 75 5.10 -70 7 08/12/2025 10:15 AM
48977 15.3 3.90 0 74 42 73 5.10 -70 7 08/12/2025 10:00 AM
48976 15.3 3.90 0 73 42 73 5.10 -69 7 08/12/2025 09:45 AM
48975 15.3 3.92 0 72 42 76 5.10 -69 8 08/12/2025 09:30 AM
48974 15.3 3.90 0 70 43 72 5.10 -70 8 08/12/2025 09:15 AM